FW1349 Weather Reports


Display with metric or nautical units.
time (UTC)temp
F
wind
direction
speed
MPH
gust
MPH
rain 1hr
in
rain 24hr
in
rain mn
in
humidity
%
barometer
mb
20260505004018 53 45 5.0 16.0 0.00 0.00 0.00 40
20260505003017 54 113 3.0 10.0 0.00 0.00 0.00 40
20260505002017 54 113 6.0 14.0 0.00 0.00 0.00 40
20260505001017 54 113 4.0 11.0 0.00 0.00 0.00 40
20260505000038 54 68 4.0 10.0 0.00 0.00 0.00 39
20260504235017 55 68 5.0 11.0 0.00 0.00 0.00 38
20260504234017 55 90 5.0 18.0 0.00 0.00 0.00 39
20260504233018 55 113 5.0 11.0 0.00 0.00 0.00 38
20260504232037 56 90 7.0 16.0 0.00 0.00 0.00 38
20260504231016 56 45 5.0 12.0 0.00 0.00 0.00 38
20260504230017 57 90 5.0 10.0 0.00 0.00 0.00 39
20260504225017 57 90 7.0 19.0 0.00 0.00 0.00 38
20260504224017 58 113 6.0 13.0 0.00 0.00 0.00 39
20260504223037 59 113 5.0 14.0 0.00 0.00 0.00 37
20260504222016 59 113 7.0 17.0 0.00 0.00 0.00 38
20260504221017 60 90 5.0 10.0 0.00 0.00 0.00 37
20260504220016 60 90 7.0 13.0 0.00 0.00 0.00 37
20260504215056 61 113 6.0 17.0 0.00 0.00 0.00 37
20260504214016 61 68 4.0 13.0 0.00 0.00 0.00 37
20260504213017 61 90 5.0 15.0 0.00 0.00 0.00 36
20260504212057 62 113 4.0 13.0 0.00 0.00 0.00 36
20260504211016 62 90 4.0 15.0 0.00 0.00 0.00 37
20260504210037 62 68 5.0 10.0 0.00 0.00 0.00 38
20260504205016 62 90 6.0 14.0 0.00 0.00 0.00 36
20260504204016 63 68 6.0 17.0 0.00 0.00 0.00 37
20260504203017 63 90 9.0 17.0 0.00 0.00 0.00 35
20260504202016 63 113 6.0 11.0 0.00 0.00 0.00 37
20260504201017 63 90 6.0 12.0 0.00 0.00 0.00 37
20260504200016 63 90 6.0 15.0 0.00 0.00 0.00 37
20260504195016 63 90 6.0 14.0 0.00 0.00 0.00 38
20260504194016 63 90 7.0 18.0 0.00 0.00 0.00 37
20260504193037 63 90 6.0 12.0 0.00 0.00 0.00 38
20260504192016 63 90 7.0 13.0 0.00 0.00 0.00 36
20260504191016 63 90 4.0 10.0 0.00 0.00 0.00 38
20260504190016 63 90 5.0 10.0 0.00 0.00 0.00 38
20260504185016 62 90 6.0 13.0 0.00 0.00 0.00 36
20260504184016 62 90 6.0 12.0 0.00 0.00 0.00 37
20260504183016 62 68 6.0 13.0 0.00 0.00 0.00 36
20260504182016 62 90 6.0 14.0 0.00 0.00 0.00 34
20260504181016 63 90 6.0 13.0 0.00 0.00 0.00 33
20260504180016 64 68 6.0 14.0 0.00 0.00 0.00 35
20260504175015 65 113 6.0 13.0 0.00 0.00 0.00 35
20260504174016 65 68 6.0 17.0 0.00 0.00 0.00 36
20260504173015 64 90 7.0 13.0 0.00 0.00 0.00 36
20260504172016 64 90 6.0 12.0 0.00 0.00 0.00 38
20260504171036 64 68 6.0 14.0 0.00 0.00 0.00 35
20260504151017 63 90 4.0 10.0 0.00 0.00 0.00 41
20260504141017 62 68 6.0 17.0 0.00 0.00 0.00 38
20260504081017 56 0.0 2.0 0.00 0.00 0.00 48
20260504050016 53 0.0 0.0 0.00 0.00 0.00 55
20260504045037 54 0.0 0.0 0.00 0.00 0.00 53
20260504044015 54 0.0 0.0 0.00 0.00 0.00 52
20260504043016 55 0.0 0.0 0.00 0.00 0.00 51
20260504042016 55 0.0 0.0 0.00 0.00 0.00 50
20260504041036 56 0.0 0.0 0.00 0.00 0.00 49
20260504040016 56 0.0 0.0 0.00 0.00 0.00 49
20260504035016 57 0.0 0.0 0.00 0.00 0.00 46
20260504034015 57 0.0 0.0 0.00 0.00 0.00 46
20260504033016 58 0.0 0.0 0.00 0.00 0.00 44
20260504032015 59 0.0 0.0 0.00 0.00 0.00 43
20260504031016 59 0.0 0.0 0.00 0.00 0.00 42
20260504030015 60 0.0 0.0 0.00 0.00 0.00 41
20260504025016 61 0.0 0.0 0.00 0.00 0.00 39
20260504024015 62 0.0 0.0 0.00 0.00 0.00 38
20260504023037 63 0.0 0.0 0.00 0.00 0.00 36
20260504022037 64 0.0 0.0 0.00 0.00 0.00 35
20260504021038 65 0.0 0.0 0.00 0.00 0.00 35
20260504020017 65 0.0 0.0 0.00 0.00 0.00 35
20260504015017 66 0.0 0.0 0.00 0.00 0.00 31
20260504014017 67 0.0 0.0 0.00 0.00 0.00 30
20260504013058 67 0.0 2.0 0.00 0.00 0.00 29
20260504012017 68 68 1.0 4.0 0.00 0.00 0.00 29
20260504011017 68 0.0 1.0 0.00 0.00 0.00 29
20260504010018 69 315 1.0 2.0 0.00 0.00 0.00 28
20260504005038 69 45 1.0 2.0 0.00 0.00 0.00 27